Regional Weather Roundup
Issued by NWS

Home | Current Version | Previous Version | Graphics & Text | Print | Product List | Glossary On
Versions: 1 2 3 4 5 6 7 8 9 10 11 12 13 14 15 16 17 18 19 20 21 22 23 24 25 26 27
000
ASUS45 KBOU 170006
RWRCO

WEATHER ROUNDUP FOR COLORADO
NATIONAL WEATHER SERVICE DENVER/BOULDER CO
600 PM MDT WED APR 16 2014

NOTE: "FAIR" INDICATES FEW OR NO CLOUDS BELOW 12000 FEET WITH NO
SIGNIFICANT WEATHER AND/OR OBSTRUCTIONS TO VISIBILITY.

COZ001>005-013-030-031-170100-
...NORTHWEST COLORADO...

CITY           SKY/WX    TMP DP  RH WIND       PRES   REMARKS
CRAIG          PTSUNNY   50  11  20 VRB6      29.96R
HAYDEN         PTSUNNY   46  10  23 CALM      29.99R
MEEKER         PTSUNNY   53  10  18 NW10      29.94S
MOUNT WERNER   NOT AVBL
STEAMBOAT SPGS PTSUNNY   46   3  17 W9        29.97R
WALDEN         MOSUNNY   37   7  28 W7        29.98R
$$

COZ006>008-011-170100-
...WEST CENTRAL VALLEYS...

CITY           SKY/WX    TMP DP  RH WIND       PRES   REMARKS
GRAND JUNCTION PTSUNNY   59  12  15 W8        29.90R
MONTROSE       CLOUDY    55  18  23 N13       29.94R
EAGLE          PTSUNNY   52  10  19 SW15G22   29.93R
RIFLE          PTSUNNY   58  11  15 W8        29.89S
DELTA          CLOUDY    59  12  15 W7        29.92R
NUCLA            N/A     54  21  28 W12       29.97R
$$

COZ017>023-064>068-170100-
...SOUTHWEST COLORADO...

CITY           SKY/WX    TMP DP  RH WIND       PRES   REMARKS
DURANGO        CLOUDY    54  19  25 W14G26    29.90R
CORTEZ         MOSUNNY   57  26  30 W13       29.92R
PAGOSA SPRINGS CLOUDY    52  17  24 SW10G22   29.92R
TELLURIDE      CLOUDY    39  25  56 W12       30.01R
WOLF CREEK PAS CLOUDY    28  19  69 SW12G26   30.03R WCI  18
$$

COZ009-010-012-014-032>034-037-058>063-170100-
...CENTRAL COLORADO...

CITY           SKY/WX    TMP DP  RH WIND       PRES   REMARKS
ASPEN          CLOUDY    45  19  35 W7        29.95R
BUENA VISTA    CLOUDY    44  24  45 NE9G21    29.93R
COPPER MTN     CLOUDY    30   5  34 W21G30    30.04R WCI  17
BERTHOUD PASS  CLOUDY    18   9  68 CALM      30.06R
COTTONWOOD PAS CLOUDY    43  10  26 W7        29.98R
GUNNISON       CLOUDY    48  14  25 NW15      29.96R
KREMMLING      CLOUDY    46   9  21 N10       29.96R
LEADVILLE      CLOUDY    34  14  43 NW13G18   29.98R WCI  25
MONARCH PASS   CLOUDY    30  12  47 W21G26    30.12R WCI  17
SALIDA         CLOUDY    47  28  47 SE23G33   29.97R
SUNLIGHT       CLOUDY    34  16  47 CALM      30.05R
WILKERSON PASS LGT SNOW  23  21  93 E5        30.06R WCI  17
$$

COZ069>075-170100-
...SAN LUIS VALLEY/SANGRE DE CRISTO MOUNTAINS...

CITY           SKY/WX    TMP DP  RH WIND       PRES   REMARKS
ALAMOSA        CLOUDY    47  27  45 E14       29.89R
LA VETA PASS   HVY SNOW  27  25  93 MISG      30.01R VSB 1/4
SAGUACHE       CLOUDY    52  16  24 NW17      29.90R
$$

COZ035-036-038>040-170100-
...NORTHERN COLORADO FRONT RANGE...

CITY           SKY/WX    TMP DP  RH WIND       PRES   REMARKS
DENVER INTL AP CLOUDY    49  20  31 NE13      29.98R
DMNS CITY PARK   N/A     50  18  28 N13       29.98R
AURORA         CLOUDY    48  21  34 NE10      29.98R
FRONT RANGE AP NOT AVBL
ERIE MUNI ARPT CLOUDY    50  21  32 NE6       29.99R
BOULDER MUN AP CLOUDY    50  23  34 S8G16     29.98R
CENTENNIAL     CLOUDY    47  20  34 E13       29.99R
BROOMFIELD     CLOUDY    48  23  37 W6        30.00R
FORT COLLINS   CLOUDY    48  25  40 NE10      30.00R
LONGMONT       CLOUDY    52  24  33 NE7       30.00R
$$

COZ041-046-047-076>085-087-088-170100-
...PIKES PEAK/PALMER DIVIDE AND SOUTHERN FOOTHILLS...

CITY           SKY/WX    TMP DP  RH WIND       PRES   REMARKS
COLO. SPRINGS  LGT RAIN  37  34  89 NW10      30.03R
A. F. ACADEMY  FLURRIES  35  34  98 W6        30.03R WCI  29
ELLICOTT       NOT AVBL
FALCON         CLOUDY    38  28  68 N7        30.02S
FORT CARSON    CLOUDY    38  33  83 N14       30.02R
LIMON          CLOUDY    47  22  37 NE13      29.99R
MONUMENT HILL  CLOUDY    36  28  75 SE16      29.99R
TRINIDAD       LGT RAIN  45  33  63 N10       29.99R
$$

COZ042>045-048>051-090-091-170100-
...NORTHEAST COLORADO...

CITY           SKY/WX    TMP DP  RH WIND       PRES   REMARKS
GREELEY ARPT   PTSUNNY   48  25  40 NE13      29.99R
AKRON          PTSUNNY   49  22  34 N16       29.97R
BURLINGTON     CLOUDY    51  27  39 NE21      29.98R
WRAY           MOSUNNY   51  31  46 N20       29.97R
STERLING       PTSUNNY   54  30  40 NE16G25   29.95R
HOLYOKE        MOSUNNY   54  32  43 N18G24    29.98R
FORT MORGAN    PTSUNNY   51  20  29 N15       29.97R
$$

COZ086-089-092>099-170100-
...SOUTHEAST COLORADO...

CITY           SKY/WX    TMP DP  RH WIND       PRES   REMARKS
PUEBLO         CLOUDY    51  29  42 W6        29.98R
LA JUNTA       CLOUDY    53  27  36 E14G25    29.97R
LAMAR          CLOUDY    57  22  25 NE18      29.94R
SPRINGFIELD      N/A     58  23  26 NE16G22   29.92R
$$



USA.gov is the U.S. government's official web portal to all federal, state and local government web resources and services.